sat.trackr.live / text

‹ back to catalog

ONEWEB-0316

NORAD 49102 · 2021-075AD

PAYLOAD ACTIVE UNKNOWN

§ Identity

Operator
Country
UK
Launch date
2021-08-21
Launch site
TYMSC
Launch vehicle
Mass (kg)
RCS (m²)

Purposes: comms

External: N2YO · Heavens-Above · Gunter

§ Orbital elements

Epoch: 2026-05-25T02:12:59.781312Z

Period
109.20 min
Inclination
87.9160°
Eccentricity
0.0001890
Mean motion
13.18685584 rev/d
Perigee alt
1,188.3 km
Apogee alt
1,191.2 km
Semi-major
7,567.9 km
B*
1.6321e-4
RAAN
340.0539°
Arg perigee
89.9661°
Mean anomaly
270.1687°
Rev number
23,416

§ Raw data

ONEWEB-03161 49102U 21075AD  26145.09235858  .00000077  00000+0  16321-3 0  99982 49102  87.9160 340.0539 0001890  89.9661 270.1687 13.18685584234166

JSON: /api/v1/satellites/49102 · /tle

For live sub-satellite position, see the globe view (requires WebGL).

§ Visibility from observer

Set your observer location to see the next 7 days of passes ≥ 10°. The values pass through the URL so the page stays shareable.

No JS? Fill the form by hand. The geolocation button needs JavaScript.